Location: ????????
(37.6846°N, 24.0673°E)
Time: 11:31:35
(UTC+00:00)

Meteor 1-5 Rocket - Pass Details

Date: 14 July 2020
Orbit: 789 x 915 km, 81.2° (Epoch: 10 August)

Event Time Altitude Azimuth Distance (km) Brightness Sun altitude
Exits shadow 00:13:46 65° 164° (SSE) 943 4.2 -25.8°
Maximum altitude 00:14:35 80° 97° (E) 883 4.2 -25.8°
Drops below altitude 10° 00:20:24 10° 11° (NNE) 2,556 7.6 -25.2°
Sets 00:22:54 0° 11° (N) 3,515 8.6 -25.0°
